N4TLC Weather Reports


time (UTC)temp
C
wind
direction
speed
KPH
gust
KPH
rain 1hr
cm
rain 24hr
cm
rain mn
cm
humidity
%
barometer
mb
20260510203125 28 178 1.6 4.8 0.00 0.00 0.00 23 1016.5
20260510202624 28 253 1.6 11.3 0.00 0.00 0.00 24 1016.4
20260510202120 28 305 0.0 6.4 0.00 0.00 0.00 25 1016.5
20260510201617 28 146 4.8 6.4 0.00 0.00 0.00 25 1016.6
20260510201114 28 248 6.4 9.7 0.00 0.00 0.00 26 1016.5
20260510200610 28 306 6.4 9.7 0.00 0.00 0.00 25 1016.7
20260510200109 28 201 1.6 6.4 0.00 0.00 0.00 25 1016.7
20260510195606 28 210 3.2 3.2 0.00 0.00 0.00 25 1016.8
20260510195102 28 346 4.8 9.7 0.00 0.00 0.00 25 1016.9
20260510194556 28 217 4.8 8.0 0.00 0.00 0.00 25 1016.9
20260510194053 28 221 3.2 9.7 0.00 0.00 0.00 26 1017.0
20260510193553 28 227 3.2 8.0 0.00 0.00 0.00 26 1017.0
20260510193049 28 321 4.8 6.4 0.00 0.00 0.00 23 1016.9
20260510192549 28 289 1.6 1.6 0.00 0.00 0.00 26 1017.1
20260510192046 28 137 3.2 4.8 0.00 0.00 0.00 24 1017.1
20260510191542 27 159 3.2 4.8 0.00 0.00 0.00 25 1017.0
20260510191038 28 278 3.2 4.8 0.00 0.00 0.00 25 1017.1
20260510190536 27 344 4.8 6.4 0.00 0.00 0.00 25 1017.0
20260510190034 27 331 1.6 9.7 0.00 0.00 0.00 25 1017.0
20260510185530 27 249 3.2 6.4 0.00 0.00 0.00 26 1017.2
20260510185027 27 32 3.2 11.3 0.00 0.00 0.00 25 1017.2
20260510184525 27 324 3.2 4.8 0.00 0.00 0.00 25 1017.0
20260510184020 28 252 3.2 3.2 0.00 0.00 0.00 26 1017.2
20260510183516 27 214 4.8 6.4 0.00 0.00 0.00 27 1017.2
20260510183011 27 300 3.2 4.8 0.00 0.00 0.00 26 1017.1
20260510182509 27 274 3.2 11.3 0.00 0.00 0.00 27 1017.2
20260510182009 27 204 4.8 4.8 0.00 0.00 0.00 27 1017.4
20260510181507 27 283 8.0 8.0 0.00 0.00 0.00 26 1017.4
20260510181003 27 188 3.2 6.4 0.00 0.00 0.00 27 1017.5
20260510180500 27 223 3.2 6.4 0.00 0.00 0.00 26 1017.6
20260510175957 27 179 0.0 6.4 0.00 0.00 0.00 28 1017.4
20260510175453 26 139 3.2 3.2 0.00 0.00 0.00 28 1017.6
20260510174948 26 226 4.8 6.4 0.00 0.00 0.00 29 1017.4
20260510174447 27 225 3.2 6.4 0.00 0.00 0.00 29 1017.7
20260510173943 27 207 3.2 4.8 0.00 0.00 0.00 27 1017.7
20260510173439 27 145 0.0 4.8 0.00 0.00 0.00 27 1017.7
20260510172936 27 155 3.2 3.2 0.00 0.00 0.00 27 1017.7
20260510172432 26 215 3.2 4.8 0.00 0.00 0.00 28 1017.6
20260510171928 26 281 0.0 3.2 0.00 0.00 0.00 28 1017.7
20260510171425 26 265 4.8 4.8 0.00 0.00 0.00 29 1017.9
20260510170922 26 195 0.0 3.2 0.00 0.00 0.00 28 1017.6
20260510170418 26 146 0.0 4.8 0.00 0.00 0.00 29 1017.8
20260510165913 26 252 1.6 9.7 0.00 0.00 0.00 29 1017.7
20260510165410 26 251 4.8 6.4 0.00 0.00 0.00 30 1017.9
20260510164907 26 132 0.0 4.8 0.00 0.00 0.00 30 1017.9
20260510164405 27 255 1.6 3.2 0.00 0.00 0.00 29 1018.1
20260510163905 26 169 1.6 3.2 0.00 0.00 0.00 29 1018.0
20260510163401 26 118 1.6 3.2 0.00 0.00 0.00 30 1018.0
20260510162855 26 67 3.2 3.2 0.00 0.00 0.00 29 1018.1
20260510162353 26 100 3.2 4.8 0.00 0.00 0.00 31 1018.4
20260510161848 25 76 6.4 6.4 0.00 0.00 0.00 31 1018.0
20260510161345 25 66 1.6 3.2 0.00 0.00 0.00 31 1018.2
20260510160842 25 306 6.4 8.0 0.00 0.00 0.00 30 1018.4
20260510160339 25 339 4.8 9.7 0.00 0.00 0.00 30 1018.2
20260510155838 25 308 8.0 11.3 0.00 0.00 0.00 31 1018.4
20260510155335 26 80 3.2 8.0 0.00 0.00 0.00 31 1018.2
20260510154831 25 60 3.2 3.2 0.00 0.00 0.00 33 1018.1
20260510154328 25 96 1.6 3.2 0.00 0.00 0.00 34 1018.2
20260510153827 25 2 3.2 9.7 0.00 0.00 0.00 35 1018.4
20260510153324 25 358 3.2 3.2 0.00 0.00 0.00 35 1018.2
20260510152821 24 34 3.2 4.8 0.00 0.00 0.00 36 1018.5
20260510152318 24 265 1.6 4.8 0.00 0.00 0.00 37 1018.5
20260510151814 23 40 0.0 8.0 0.00 0.00 0.00 36 1018.2
20260510151312 23 339 0.0 6.4 0.00 0.00 0.00 37 1018.2
20260510150808 23 245 0.0 3.2 0.00 0.00 0.00 42 1018.1
20260510150303 23 228 3.2 6.4 0.00 0.00 0.00 42 1018.2
20260510145800 23 166 0.0 3.2 0.00 0.00 0.00 41 1018.5
20260510145257 23 62 0.0 3.2 0.00 0.00 0.00 44 1018.6
20260510144753 22 51 4.8 4.8 0.00 0.00 0.00 46 1018.5
20260510144250 22 356 3.2 8.0 0.00 0.00 0.00 43 1018.6
20260510143749 22 108 0.0 4.8 0.00 0.00 0.00 46 1018.4
20260510143246 22 38 0.0 6.4 0.00 0.00 0.00 45 1018.5
20260510142742 22 273 3.2 3.2 0.00 0.00 0.00 46 1018.5
20260510142239 22 354 4.8 6.4 0.00 0.00 0.00 46 1018.6
20260510141736 22 96 3.2 4.8 0.00 0.00 0.00 50 1018.2
20260510141235 21 109 3.2 6.4 0.00 0.00 0.00 48 1018.4
20260510140731 21 79 0.0 4.8 0.00 0.00 0.00 51 1018.4
20260510140232 21 32 3.2 4.8 0.00 0.00 0.00 54 1018.4
20260510135726 21 59 3.2 4.8 0.00 0.00 0.00 53 1018.6
20260510135222 21 39 0.0 4.8 0.00 0.00 0.00 56 1018.4
20260510134720 21 195 0.0 6.4 0.00 0.00 0.00 56 1018.2
20260510134217 20 222 3.2 3.2 0.00 0.00 0.00 61 1018.4
20260510133712 20 200 1.6 4.8 0.00 0.00 0.00 62 1018.2
20260510133208 20 49 0.0 3.2 0.00 0.00 0.00 64 1018.1
20260510132704 20 162 0.0 4.8 0.00 0.00 0.00 64 1018.1
20260510132202 19 195 0.0 4.8 0.00 0.00 0.00 63 1018.4
20260510131659 19 171 1.6 4.8 0.00 0.00 0.00 67 1018.2
20260510131157 18 173 0.0 4.8 0.00 0.00 0.00 73 1018.2
20260510130653 18 209 3.2 3.2 0.00 0.00 0.00 75 1018.1
20260510130150 18 60 3.2 6.4 0.00 0.00 0.00 75 1018.1
20260510125646 17 304 1.6 4.8 0.00 0.00 0.00 77 1018.5
20260510125143 17 237 1.6 6.4 0.00 0.00 0.00 78 1018.1
20260510124640 17 17 0.0 3.2 0.00 0.00 0.00 82 1018.1
20260510124137 17 227 0.0 1.6 0.00 0.00 0.00 84 1018.1
20260510123632 16 37 0.0 3.2 0.00 0.00 0.00 86 1018.0
20260510123128 16 76 0.0 3.2 0.00 0.00 0.00 91 1017.9
20260510122624 16 84 3.2 3.2 0.00 0.00 0.00 95 1018.0
20260510122120 15 253 3.2 3.2 0.00 0.00 0.00 97 1017.8
20260510121618 15 91 1.6 3.2 0.00 0.00 0.00 98 1017.6
20260510121115 15 103 0.0 3.2 0.00 0.00 0.00 98 1017.6
20260510120613 15 124 0.0 3.2 0.00 0.00 0.00 98 1017.2
20260510120108 15 102 1.6 3.2 0.00 0.00 0.00 98 1017.3
20260510115605 14 135 0.0 3.2 0.00 0.00 0.00 98 1017.3
20260510115102 14 218 0.0 1.6 0.00 0.00 0.00 98 1017.0
20260510114558 14 209 0.0 1.6 0.00 0.00 0.00 98 1017.2
20260510114054 13 146 0.0 3.2 0.00 0.00 0.00 98 1017.0
20260510113549 13 80 0.0 3.2 0.00 0.00 0.00 98 1016.9
20260510113047 13 139 0.0 3.2 0.00 0.00 0.00 98 1017.0
20260510112543 13 121 3.2 3.2 0.00 0.00 0.00 98 1016.9
20260510112040 12 135 0.0 3.2 0.00 0.00 0.00 98 1016.8
20260510111537 12 91 1.6 3.2 0.00 0.00 0.00 98 1016.7
20260510111033 12 125 0.0 3.2 0.00 0.00 0.00 98 1016.5
20260510110529 12 141 0.0 3.2 0.00 0.00 0.00 97 1016.6
20260510110025 12 85 0.0 3.2 0.00 0.00 0.00 97 1016.3
20260510105520 12 309 0.0 1.6 0.00 0.00 0.00 97 1016.4
20260510105016 12 45 0.0 3.2 0.00 0.00 0.00 97 1016.2
20260510104513 12 74 1.6 3.2 0.00 0.00 0.00 97 1016.1
20260510104009 12 114 1.6 4.8 0.00 0.00 0.00 97 1016.1
20260510103506 12 77 3.2 3.2 0.00 0.00 0.00 97 1016.0
20260510103002 12 79 1.6 3.2 0.00 0.00 0.00 97 1016.0
20260510102458 12 78 3.2 3.2 0.00 0.00 0.00 97 1015.8
20260510101954 12 74 1.6 3.2 0.00 0.00 0.00 97 1015.8
20260510101452 12 117 1.6 3.2 0.00 0.00 0.00 97 1015.8
20260510100950 12 110 1.6 3.2 0.00 0.00 0.00 97 1015.7
20260510100446 12 123 0.0 3.2 0.00 0.00 0.00 97 1015.6
20260510095943 12 138 3.2 3.2 0.00 0.00 0.00 97 1015.5
20260510095438 12 111 1.6 3.2 0.00 0.00 0.00 97 1015.5
20260510094937 12 80 1.6 3.2 0.00 0.00 0.00 97 1015.5
20260510094432 12 100 3.2 3.2 0.00 0.00 0.00 97 1015.4
20260510093929 13 108 3.2 3.2 0.00 0.00 0.00 97 1015.5
20260510093424 13 94 1.6 3.2 0.00 0.00 0.00 96 1015.4
20260510092921 13 100 3.2 3.2 0.00 0.00 0.00 96 1015.4
20260510092419 13 95 0.0 3.2 0.00 0.00 0.00 96 1015.4
20260510091918 13 87 1.6 3.2 0.00 0.00 0.00 96 1015.2
20260510091416 13 104 1.6 3.2 0.00 0.00 0.00 96 1015.4
20260510090912 13 118 3.2 3.2 0.00 0.00 0.00 96 1015.3
20260510090409 13 128 3.2 3.2 0.00 0.00 0.00 96 1015.3
20260510085905 13 120 1.6 3.2 0.00 0.00 0.00 96 1015.2
20260510085400 13 113 1.6 3.2 0.00 0.00 0.00 96 1015.2
20260510084855 13 68 1.6 3.2 0.00 0.00 0.00 96 1014.9
20260510084353 13 97 1.6 3.2 0.00 0.00 0.00 96 1015.0
20260510083849 13 77 1.6 3.2 0.00 0.00 0.00 96 1015.1
20260510083346 13 76 0.0 0.0 0.00 0.00 0.00 96 1014.9
20260510082841 13 84 0.0 1.6 0.00 0.00 0.00 96 1014.9
20260510082339 13 98 0.0 1.6 0.00 0.00 0.00 96 1014.9
20260510081838 13 116 0.0 1.6 0.00 0.00 0.00 96 1014.9
20260510081334 13 119 1.6 3.2 0.00 0.00 0.00 96 1014.8
20260510080831 13 123 1.6 3.2 0.00 0.00 0.00 95 1014.7
20260510080325 13 104 1.6 3.2 0.00 0.00 0.00 95 1014.6
20260510075822 13 87 1.6 1.6 0.00 0.00 0.00 95 1014.4
20260510075320 14 89 0.0 1.6 0.00 0.00 0.00 95 1014.4
20260510074816 14 126 1.6 3.2 0.00 0.00 0.00 95 1014.4
20260510074314 14 118 3.2 3.2 0.00 0.00 0.00 95 1014.4
20260510073809 14 120 1.6 3.2 0.00 0.00 0.00 95 1014.4
20260510073306 15 126 0.0 1.6 0.00 0.00 0.00 95 1014.4
20260510072801 14 134 0.0 1.6 0.00 0.00 0.00 95 1014.4
20260510072258 14 102 0.0 1.6 0.00 0.00 0.00 95 1014.3
20260510071754 14 113 0.0 1.6 0.00 0.00 0.00 95 1014.4
20260510071251 14 100 1.6 1.6 0.00 0.00 0.00 94 1014.2
20260510070750 15 107 3.2 3.2 0.00 0.00 0.00 94 1014.4
20260510070247 15 100 3.2 3.2 0.00 0.00 0.00 94 1014.3
20260510065746 15 105 3.2 3.2 0.00 0.00 0.00 94 1014.3
20260510065244 15 89 0.0 3.2 0.00 0.00 0.00 94 1014.2
20260510064740 15 113 0.0 3.2 0.00 0.00 0.00 94 1014.3
20260510064238 15 123 3.2 3.2 0.00 0.00 0.00 94 1014.6
20260510063734 15 100 1.6 3.2 0.00 0.00 0.00 93 1014.3
20260510063230 15 107 1.6 3.2 0.00 0.00 0.00 93 1014.3
20260510062727 15 101 1.6 3.2 0.00 0.00 0.00 93 1014.4
20260510062223 15 103 1.6 1.6 0.00 0.00 0.00 93 1014.4
20260510061718 15 148 1.6 1.6 0.00 0.00 0.00 93 1014.7
20260510061216 15 130 0.0 1.6 0.00 0.00 0.00 93 1014.6
20260510060712 15 137 3.2 3.2 0.00 0.00 0.00 93 1014.4
20260510060209 15 94 1.6 3.2 0.00 0.00 0.00 92 1014.6
20260510055706 15 69 1.6 1.6 0.00 0.00 0.00 92 1014.6
20260510055203 15 109 1.6 3.2 0.00 0.00 0.00 92 1014.3
20260510054658 16 117 1.6 1.6 0.00 0.00 0.00 92 1014.3
20260510054154 16 89 3.2 3.2 0.00 0.00 0.00 92 1014.4
20260510053654 16 89 0.0 1.6 0.00 0.00 0.00 91 1014.7
20260510053151 16 109 1.6 3.2 0.00 0.00 0.00 90 1014.8
20260510052646 16 127 3.2 4.8 0.00 0.00 0.00 90 1014.7
20260510052143 16 128 1.6 3.2 0.00 0.00 0.00 90 1014.7
20260510051639 16 99 1.6 1.6 0.00 0.00 0.00 90 1014.6
20260510051135 16 31 0.0 1.6 0.00 0.00 0.00 90 1014.8
20260510050633 16 162 0.0 1.6 0.00 0.00 0.00 90 1014.7
20260510050130 16 110 0.0 1.6 0.00 0.00 0.00 89 1014.9
20260510045626 16 142 1.6 3.2 0.00 0.00 0.00 90 1014.8
20260510045123 16 156 3.2 3.2 0.00 0.00 0.00 90 1014.9
20260510044619 16 126 1.6 3.2 0.00 0.00 0.00 90 1014.9
20260510044117 16 119 1.6 3.2 0.00 0.00 0.00 90 1014.9
20260510043612 16 129 0.0 3.2 0.00 0.00 0.00 90 1014.9
20260510043109 16 108 1.6 3.2 0.00 0.00 0.00 89 1014.7
20260510042607 16 105 3.2 3.2 0.00 0.00 0.00 89 1014.8
20260510042102 16 111 3.2 3.2 0.00 0.00 0.00 89 1015.0
20260510041600 16 119 3.2 3.2 0.00 0.00 0.00 88 1014.8
20260510041057 16 129 1.6 3.2 0.00 0.00 0.00 88 1014.7
20260510040554 16 141 1.6 3.2 0.00 0.00 0.00 88 1014.8
20260510040050 16 136 1.6 3.2 0.00 0.00 0.00 88 1014.9
20260510035546 16 130 3.2 3.2 0.00 0.00 0.00 87 1014.7
20260510035046 17 48 1.6 3.2 0.00 0.00 0.00 86 1014.8
20260510034544 17 100 0.0 1.6 0.00 0.00 0.00 86 1014.9
20260510034041 17 135 3.2 3.2 0.00 0.00 0.00 85 1014.9
20260510033537 17 121 1.6 3.2 0.00 0.00 0.00 85 1014.8
20260510033035 17 112 1.6 1.6 0.00 0.00 0.00 84 1014.9
20260510032531 17 126 1.6 3.2 0.00 0.00 0.00 84 1014.8
20260510032026 17 131 0.0 1.6 0.00 0.00 0.00 83 1014.8
20260510031522 17 126 1.6 3.2 0.00 0.00 0.00 83 1014.8
20260510031018 17 135 0.0 3.2 0.00 0.00 0.00 83 1014.7
20260510030513 17 132 0.0 3.2 0.00 0.00 0.00 82 1014.9
20260510030011 18 148 1.6 3.2 0.00 0.00 0.00 82 1014.8
20260510025508 18 129 3.2 3.2 0.00 0.00 0.00 82 1014.6
20260510025006 18 127 3.2 3.2 0.00 0.00 0.00 81 1014.4
20260510024502 18 128 3.2 3.2 0.00 0.00 0.00 81 1014.8
20260510023958 18 127 1.6 3.2 0.00 0.00 0.00 81 1014.7
20260510023454 18 134 0.0 3.2 0.00 0.00 0.00 81 1014.6
20260510022951 18 129 1.6 3.2 0.00 0.00 0.00 81 1014.4
20260510022451 18 146 1.6 3.2 0.00 0.00 0.00 80 1014.4
20260510021950 18 125 3.2 3.2 0.00 0.00 0.00 80 1014.3
20260510021448 18 117 3.2 3.2 0.00 0.00 0.00 79 1014.4
20260510020945 18 125 3.2 3.2 0.00 0.00 0.00 79 1014.4
20260510020444 18 135 1.6 3.2 0.00 0.00 0.00 78 1014.4
20260510015940 18 140 1.6 3.2 0.00 0.00 0.00 78 1014.2
20260510015436 18 148 0.0 3.2 0.00 0.00 0.00 78 1014.2
20260510014931 18 154 1.6 3.2 0.00 0.00 0.00 78 1014.2
20260510014430 18 156 1.6 3.2 0.00 0.00 0.00 77 1014.2
20260510013926 18 142 1.6 3.2 0.00 0.00 0.00 77 1013.9
20260510013421 18 143 1.6 3.2 0.00 0.00 0.00 77 1013.8
20260510012916 18 145 1.6 3.2 0.00 0.00 0.00 77 1013.9
20260510012412 18 145 1.6 3.2 0.00 0.00 0.00 77 1013.7
20260510011906 18 131 3.2 3.2 0.00 0.00 0.00 76 1013.5
20260510011402 18 137 4.8 4.8 0.00 0.00 0.00 76 1013.5
20260510010858 19 132 1.6 3.2 0.00 0.00 0.00 75 1013.3
20260510010355 19 114 1.6 3.2 0.00 0.00 0.00 75 1013.5
20260510005852 19 142 1.6 3.2 0.00 0.00 0.00 74 1013.3
20260510005348 19 145 0.0 3.2 0.00 0.00 0.00 74 1013.1
20260510004846 20 130 1.6 3.2 0.00 0.00 0.00 73 1013.2
20260510004343 20 128 3.2 3.2 0.00 0.00 0.00 72 1013.0
20260510003841 20 119 3.2 3.2 0.00 0.00 0.00 72 1012.9
20260510003338 20 117 0.0 3.2 0.00 0.00 0.00 71 1012.9
20260510002836 20 168 1.6 4.8 0.00 0.00 0.00 70 1012.7
20260510002334 20 161 1.6 3.2 0.00 0.00 0.00 70 1012.8
20260510001830 20 159 3.2 4.8 0.00 0.00 0.00 69 1012.7
20260510001329 20 158 1.6 4.8 0.00 0.00 0.00 69 1012.8
20260510000824 20 145 3.2 3.2 0.00 0.00 0.00 69 1012.7
20260510000322 21 158 3.2 3.2 0.00 0.00 0.00 68 1012.7
20260509235819 21 203 0.0 3.2 0.00 0.00 0.00 68 1012.6
20260509235315 21 213 1.6 4.8 0.00 0.00 0.00 68 1012.7
20260509234811 21 155 3.2 3.2 0.00 0.00 0.00 68 1012.6
20260509234308 21 123 3.2 3.2 0.00 0.00 0.00 67 1012.5
20260509233806 21 152 3.2 3.2 0.00 0.00 0.00 67 1012.5
20260509233303 21 184 0.0 4.8 0.00 0.00 0.00 66 1012.6
20260509232759 21 153 1.6 6.4 0.00 0.00 0.00 66 1012.3
20260509232257 21 138 4.8 4.8 0.00 0.00 0.00 65 1012.1
20260509231753 22 153 3.2 6.4 0.00 0.00 0.00 64 1012.3
20260509231250 22 176 1.6 4.8 0.00 0.00 0.00 63 1012.4
20260509230748 22 144 1.6 4.8 0.00 0.00 0.00 64 1012.2
20260509230244 22 158 1.6 3.2 0.00 0.00 0.00 63 1012.1
20260509225739 22 183 3.2 4.8 0.00 0.00 0.00 63 1012.2
20260509225236 22 171 3.2 6.4 0.00 0.00 0.00 62 1012.0
20260509224731 22 165 3.2 6.4 0.00 0.00 0.00 61 1012.0
20260509224229 22 162 3.2 3.2 0.00 0.00 0.00 61 1012.0
20260509223726 22 172 3.2 3.2 0.00 0.00 0.00 61 1011.9
20260509223223 22 195 3.2 6.4 0.00 0.00 0.00 60 1011.9
20260509222719 23 188 3.2 4.8 0.00 0.00 0.00 57 1012.0
20260509222215 23 168 3.2 4.8 0.00 0.00 0.00 58 1011.7
20260509221711 23 295 4.8 4.8 0.00 0.00 0.00 58 1011.9
20260509221207 23 190 6.4 6.4 0.00 0.00 0.00 56 1012.0
20260509220703 23 89 0.0 4.8 0.00 0.00 0.00 56 1012.1
20260509220200 24 194 3.2 4.8 0.00 0.00 0.00 55 1011.9
20260509215655 24 176 3.2 6.4 0.00 0.00 0.00 55 1011.8
20260509215152 24 181 3.2 6.4 0.00 0.00 0.00 53 1011.9
20260509214649 24 180 1.6 8.0 0.00 0.00 0.00 55 1011.8
20260509214146 24 183 4.8 8.0 0.00 0.00 0.00 55 1012.1
20260509213643 24 241 3.2 4.8 0.00 0.00 0.00 54 1011.9
20260509213139 23 205 6.4 9.7 0.00 0.00 0.00 55 1011.8
20260509212636 23 211 4.8 6.4 0.00 0.00 0.00 57 1011.7
20260509212133 23 278 3.2 6.4 0.00 0.00 0.00 56 1011.8
20260509211629 23 190 3.2 6.4 0.00 0.00 0.00 56 1012.0
20260509211126 23 304 3.2 6.4 0.00 0.00 0.00 54 1012.0
20260509210623 23 198 4.8 8.0 0.00 0.00 0.00 55 1011.7
20260509210120 24 182 6.4 6.4 0.00 0.00 0.00 54 1011.8
20260509205614 23 143 3.2 4.8 0.00 0.00 0.00 56 1011.7
20260509205109 23 307 3.2 6.4 0.00 0.00 0.00 55 1011.5
20260509204606 23 153 1.6 6.4 0.00 0.00 0.00 57 1011.7
20260509204102 23 222 3.2 9.7 0.00 0.00 0.00 59 1011.8
20260509203558 23 273 6.4 6.4 0.00 0.00 0.00 59 1011.7